[[{"header":{"parameterUnit":"m.s-1","parameterCategory":2,"la1":30.2991,"la2":30.254,"lo1":-89.0895,"lo2":-89.0444,"dy":0.0017,"dx":0.0017,"nx":28,"ny":28,"refTime":"2025-03-15T21:00:00:Z","depth":"0","parameterNumber":2,"parameterNumberName":"U-component_of_CURRENTS"},"data":[0,0,0,0,0,0,0,0,0,0,0,0,0,0,0,0,0,0,0,0,0,0,0,0,0,0,0,0,0,0,0,0,0,0,0,0,0,0,0,0,0,0,0,0,0,0,0,0,0,0,0,0,0,0,0,0,0,0,-0.1586,-0.1587,0,-0.1609,-0.1609,-0.1609,-0.1604,-0.1604,-0.1604,-0.1604,-0.1535,-0.1534,-0.1532,0,0,0,0,0,0,0,0,0,0,0,0,0,-0.1491,-0.1493,-0.1586,-0.1587,-0.1588,-0.1609,-0.1609,-0.1609,-0.1604,-0.1604,-0.1604,-0.1604,-0.1536,-0.1534,-0.1532,0,0,0,0,0,0,0,0,0,0,0,0,0,-0.1521,-0.1493,-0.1586,-0.1591,-0.1592,-0.1609,-0.1609,-0.1609,-0.1604,-0.1604,-0.1604,-0.1604,-0.1537,-0.1534,-0.1531,-0.1516,0,0,-0.1523,-0.1522,0,0,0,0,0,0,0,0,-0.152,-0.1524,-0.1589,-0.1591,-0.1592,-0.1607,-0.155,-0.1575,-0.1604,-0.1595,-0.1604,-0.1604,-0.1553,-0.1549,-0.155,-0.1513,-0.151,-0.1523,-0.1521,-0.152,-0.1519,0,0,0,0,0,0,0,-0.1518,-0.1523,-0.1591,-0.159,-0.1592,-0.1575,-0.158,-0.1555,-0.157,-0.1596,-0.1597,-0.1606,-0.1553,-0.1552,-0.1548,-0.1509,-0.1523,-0.1521,-0.1519,-0.1518,-0.1456,-0.1456,0,0,0,0,0,0,-0.1526,-0.1522,-0.1591,-0.1592,-0.1559,-0.1578,-0.1582,-0.1599,-0.1572,-0.157,-0.1606,-0.1605,-0.1557,-0.1551,-0.1545,-0.1539,-0.152,-0.1518,-0.1516,-0.1456,-0.1456,-0.1456,0,0,0,0,0,0,-0.1524,-0.1532,-0.159,-0.156,-0.1566,-0.158,-0.1599,-0.16,-0.1603,-0.1581,-0.1576,-0.1609,-0.1557,-0.1549,-0.1529,-0.1535,-0.1516,-0.1514,-0.1456,-0.1456,-0.1456,-0.1517,0,0,0,0,0,0,-0.1521,-0.1531,-0.154,-0.1561,-0.1569,-0.1605,-0.1599,-0.16,-0.161,-0.161,-0.1582,-0.1575,-0.1556,-0.1534,-0.1527,-0.1531,-0.1512,-0.1456,-0.1456,-0.1456,-0.1515,-0.1519,-0.1522,0,0,0,0,0,-0.1518,-0.1534,-0.154,-0.1549,-0.1583,-0.1606,-0.1608,-0.1614,-0.161,-0.1615,-0.1596,-0.1576,-0.1528,-0.1532,-0.1523,-0.1527,-0.1456,-0.1456,-0.1456,-0.1513,-0.1518,-0.1522,0,0,0,0,0,0,-0.1494,-0.1537,-0.1543,-0.1571,-0.159,-0.1607,-0.1614,-0.1617,-0.1607,-0.1604,-0.1577,-0.157,-0.1552,-0.153,-0.1534,-0.1508,-0.1488,-0.1486,-0.1534,-0.1538,-0.1542,-0.1558,-0.151,0,0,0,0,0,-0.1495,-0.152,-0.1552,-0.1572,-0.1585,-0.1598,-0.1607,-0.1614,-0.1613,-0.161,-0.1592,-0.1567,-0.1545,-0.1535,-0.1509,-0.1497,-0.1501,-0.1493,-0.1496,-0.15,-0.1507,-0.1495,-0.1499,-0.1456,-0.1456,-0.1456,0,0,-0.149,-0.1518,-0.153,-0.1569,-0.1583,-0.1608,-0.1602,-0.1622,-0.1636,-0.1601,-0.1602,-0.1576,-0.1543,-0.1531,-0.1521,-0.1515,-0.1525,-0.15,-0.1503,-0.1508,-0.1495,-0.15,-0.1504,-0.1456,-0.1456,-0.1456,0,0,-0.15,-0.152,-0.1548,-0.1568,-0.16,-0.1612,-0.162,-0.164,-0.164,-0.1639,-0.1617,-0.1599,-0.1566,-0.1551,-0.1537,-0.1543,-0.154,-0.1531,-0.1569,-0.1558,-0.1562,-0.1565,-0.1629,-0.1637,-0.1538,-0.1539,-0.1539,0,-0.1492,-0.1537,-0.1555,-0.1588,-0.1611,-0.1617,-0.165,-0.1651,-0.1658,-0.1661,-0.1644,-0.1605,-0.1576,-0.1569,-0.1574,-0.1552,-0.157,-0.1559,-0.1565,-0.1568,-0.157,-0.1633,-0.1642,-0.1541,-0.1541,-0.1541,-0.1541,0,-0.1527,-0.1561,-0.1578,-0.1626,-0.1648,-0.1675,-0.1694,-0.1703,-0.17,-0.1698,-0.1685,-0.1648,-0.163,-0.1614,-0.1597,-0.16,-0.162,-0.157,-0.156,-0.1579,-0.1644,-0.1652,-0.1546,-0.1545,-0.1544,-0.1543,0,0,-0.1518,-0.159,-0.1597,-0.1632,-0.1674,-0.17,-0.1724,-0.175,-0.1776,-0.1747,-0.1768,-0.1718,-0.1699,-0.1682,-0.1654,-0.1645,-0.1692,-0.1624,-0.1622,-0.1701,-0.173,-0.1806,-0.1822,-0.1641,-0.1641,-0.1641,-0.179,0,-0.1543,-0.1609,-0.1641,-0.1702,-0.174,-0.1763,-0.1792,-0.181,-0.1815,-0.1832,-0.1783,-0.1781,-0.1724,-0.1726,-0.1704,-0.1687,-0.1706,-0.166,-0.1688,-0.169,-0.1764,-0.1829,-0.1798,-0.1931,-0.1797,-0.1798,-0.1799,0,-0.1572,-0.1616,-0.1678,-0.1759,-0.178,-0.1808,-0.187,-0.1897,-0.1912,-0.1915,-0.1896,-0.187,-0.1857,-0.1797,-0.1789,-0.1765,-0.176,-0.1745,-0.1749,-0.1799,-0.1778,-0.1877,-0.1949,-0.1939,-0.1811,-0.181,-0.1809,0,-0.1563,-0.1648,-0.1699,-0.1723,-0.1805,-0.1833,-0.187,-0.1909,-0.1946,-0.1964,-0.1994,-0.196,-0.1967,-0.1918,-0.1897,-0.1845,-0.1908,-0.1827,-0.1904,-0.1912,-0.1881,-0.1885,-0.195,-0.1832,-0.1832,-0.1831,-0.1831,0,-0.1581,-0.1626,-0.1696,-0.1723,-0.1788,-0.1841,-0.1907,-0.1939,-0.1995,-0.2055,-0.2028,-0.2074,-0.1992,-0.2015,-0.1958,-0.1991,-0.1961,-0.1946,-0.1951,-0.1908,-0.1913,-0.1896,-0.1874,-0.1837,-0.1836,-0.1835,-0.1834,0,-0.1564,-0.1612,-0.1672,-0.1754,-0.1783,-0.182,-0.1922,-0.1979,-0.2032,-0.2114,-0.2126,-0.2175,-0.222,-0.2181,-0.2157,-0.2111,-0.2094,-0.212,-0.2125,-0.2128,-0.2164,-0.2147,-0.2222,-0.216,-0.2227,-0.223,-0.2232,0,-0.1563,-0.1589,-0.1673,-0.1712,-0.1745,-0.1816,-0.188,-0.1966,-0.2032,-0.2182,-0.2223,-0.2318,-0.2376,-0.2413,-0.2353,-0.2335,-0.2239,-0.2307,-0.2179,-0.2207,-0.2189,-0.2147,-0.2082,-0.2186,-0.2188,-0.2189,-0.219,0,-0.1547,-0.1567,-0.161,-0.1686,-0.175,-0.1832,-0.1922,-0.1981,-0.2111,-0.2206,-0.2351,-0.242,-0.2512,-0.2505,-0.2511,-0.2453,-0.2272,-0.2338,-0.2325,-0.2153,-0.2147,-0.2076,-0.2105,-0.2202,-0.2201,-0.22,-0.22,-0.2199,-0.1518,-0.1535,-0.1587,-0.1657,-0.1734,-0.1817,-0.1833,-0.1965,-0.2074,-0.2193,-0.2375,-0.2461,-0.2561,-0.2563,-0.2535,-0.2481,-0.2404,-0.2379,-0.2364,-0.2326,-0.2236,-0.2355,-0.2471,-0.2471,-0.2471,-0.2472,-0.2472,0,-0.1482,-0.1512,-0.157,-0.1631,-0.1682,-0.1743,-0.1842,-0.1835,-0.1921,-0.2108,-0.2244,-0.245,-0.251,-0.2545,-0.2569,-0.2501,-0.2368,-0.2435,-0.2317,-0.2246,-0.2321,-0.2286,-0.2417,-0.2417,-0.2417,-0.2417,-0.2417,-0.2417,-0.1464,-0.1488,-0.1518,-0.156,-0.1599,-0.1597,-0.1616,-0.1625,-0.1688,-0.1816,-0.1968,-0.2094,-0.2254,-0.2616,-0.2603,-0.2511,-0.2381,-0.2371,-0.2317,-0.2333,-0.2324,-0.2315,-0.2276,-0.2403,-0.2403,-0.2167,-0.2165,-0.2164]},{"header":{"parameterUnit":"m.s-1","parameterCategory":2,"la1":30.2991,"la2":30.254,"lo1":-89.0895,"lo2":-89.0444,"dy":0.0017,"dx":0.0017,"nx":28,"ny":28,"refTime":"2025-03-15T21:00:00:Z","depth":"0","parameterNumber":3,"parameterNumberName":"V-component_of_CURRENTS"},"data":[0,0,0,0,0,0,0,0,0,0,0,0,0,0,0,0,0,0,0,0,0,0,0,0,0,0,0,0,0,0,0,0,0,0,0,0,0,0,0,0,0,0,0,0,0,0,0,0,0,0,0,0,0,0,0,0,0,0,0.0177,0.0178,0,0.0227,0.0228,0.0228,0.0257,0.0257,0.0257,0.0257,0.0327,0.0328,0.033,0,0,0,0,0,0,0,0,0,0,0,0,0,0.015,0.015,0.0177,0.0178,0.0178,0.0227,0.0228,0.0229,0.0257,0.0257,0.0257,0.0257,0.0326,0.0328,0.033,0,0,0,0,0,0,0,0,0,0,0,0,0,0.0178,0.015,0.0177,0.0198,0.02,0.0227,0.0228,0.0229,0.0257,0.0257,0.0257,0.0257,0.0325,0.0328,0.0331,0.0347,0,0,0.0339,0.034,0,0,0,0,0,0,0,0,0.0176,0.0179,0.0194,0.0196,0.0199,0.0235,0.0244,0.0269,0.0257,0.0236,0.0257,0.0257,0.0297,0.0302,0.0312,0.035,0.0353,0.0339,0.0341,0.0342,0.0343,0,0,0,0,0,0,0,0.0174,0.0177,0.0198,0.0195,0.0198,0.022,0.0223,0.0249,0.0267,0.0238,0.024,0.0244,0.0299,0.031,0.0314,0.0354,0.0339,0.0342,0.0343,0.0344,0.0439,0.0439,0,0,0,0,0,0,0.0164,0.0175,0.0196,0.0199,0.0187,0.022,0.0224,0.0224,0.0266,0.0272,0.0244,0.0245,0.0305,0.0311,0.0317,0.0355,0.0342,0.0345,0.0346,0.0438,0.0439,0.044,0,0,0,0,0,0,0.0163,0.0165,0.0194,0.0188,0.0193,0.022,0.022,0.0225,0.0235,0.0271,0.0277,0.0249,0.0305,0.0313,0.0346,0.0357,0.0346,0.0348,0.0437,0.0438,0.0439,0.042,0,0,0,0,0,0,0.0162,0.0165,0.0161,0.0187,0.0193,0.0206,0.022,0.0226,0.0238,0.024,0.0277,0.0284,0.0306,0.0342,0.0349,0.036,0.0351,0.0436,0.0437,0.0439,0.0419,0.042,0.0421,0,0,0,0,0,0.0161,0.0152,0.016,0.0163,0.0187,0.0206,0.0211,0.0231,0.0238,0.024,0.0273,0.0282,0.0357,0.0345,0.0353,0.0365,0.0435,0.0437,0.0439,0.0419,0.042,0.0421,0,0,0,0,0,0,0.0136,0.0155,0.0164,0.0161,0.0181,0.021,0.0212,0.0228,0.0255,0.0257,0.0292,0.0301,0.0334,0.0354,0.034,0.0399,0.0399,0.0402,0.0381,0.0382,0.0383,0.0385,0.0353,0,0,0,0,0,0.0129,0.0127,0.0153,0.0149,0.0158,0.0185,0.0195,0.021,0.0237,0.0248,0.0276,0.0312,0.0349,0.0367,0.0398,0.0428,0.0454,0.0443,0.0444,0.0445,0.0454,0.0505,0.0511,0.0446,0.0446,0.0446,0,0,0.0117,0.0128,0.0126,0.0144,0.016,0.0168,0.0191,0.0202,0.0216,0.0252,0.0278,0.0313,0.0358,0.0394,0.0411,0.0411,0.0475,0.0447,0.0447,0.0456,0.0508,0.0514,0.052,0.0447,0.0447,0.0447,0,0,0.0089,0.0103,0.0092,0.0107,0.0129,0.0151,0.0153,0.0184,0.0206,0.0235,0.0271,0.0318,0.0357,0.0405,0.0432,0.0458,0.0475,0.046,0.0468,0.0518,0.0523,0.0529,0.0556,0.0564,0.0462,0.0462,0.0462,0,0.0075,0.0063,0.0092,0.0089,0.0097,0.0141,0.0135,0.0169,0.0208,0.0238,0.0238,0.0336,0.0369,0.044,0.0449,0.046,0.0479,0.0456,0.0518,0.0524,0.053,0.0557,0.0566,0.0461,0.0461,0.0461,0.0461,0,0.0042,0.0034,0.003,0.0041,0.0059,0.006,0.0109,0.014,0.0171,0.0212,0.0282,0.0338,0.04,0.0419,0.044,0.0505,0.0501,0.0509,0.0511,0.0535,0.0562,0.0572,0.046,0.046,0.0461,0.0461,0,0,0.0006,0.0003,0.0002,-0.0007,0.0031,0.0039,0.0082,0.0135,0.0171,0.0228,0.0278,0.036,0.0401,0.0436,0.0479,0.0528,0.058,0.0531,0.0534,0.055,0.0671,0.0759,0.0778,0.0591,0.0593,0.0595,0.0668,0,-0.0031,-0.007,-0.0043,-0.006,-0.0076,-0.0009,0.0027,0.009,0.0154,0.0217,0.0311,0.0366,0.0405,0.0432,0.0494,0.0559,0.0607,0.0558,0.0653,0.0656,0.0726,0.0794,0.0901,0.0984,0.0677,0.0679,0.068,0,-0.0069,-0.0095,-0.0133,-0.0122,-0.0117,-0.0105,-0.0032,0.0006,0.0127,0.0178,0.0274,0.0345,0.0447,0.0459,0.0602,0.0564,0.0618,0.0666,0.067,0.0771,0.0765,0.0915,0.1013,0.1245,0.0695,0.0694,0.0693,0,-0.013,-0.0148,-0.0188,-0.0187,-0.0162,-0.0145,-0.0115,-0.0008,0.0027,0.0154,0.0192,0.0335,0.0388,0.0497,0.062,0.0603,0.0763,0.075,0.0883,0.0887,0.1011,0.1025,0.1344,0.0847,0.0847,0.0847,0.0846,0,-0.0184,-0.021,-0.0225,-0.0248,-0.0269,-0.0216,-0.0197,-0.0128,-0.0039,0.0003,0.0156,0.0224,0.0397,0.0519,0.0621,0.0802,0.077,0.0911,0.0932,0.1006,0.1018,0.125,0.1292,0.0849,0.0849,0.0848,0.0848,0,-0.0241,-0.0253,-0.0302,-0.0306,-0.0307,-0.0321,-0.0287,-0.0272,-0.0162,-0.0104,-0.0072,0.013,0.0323,0.0506,0.069,0.0802,0.1093,0.1017,0.109,0.1121,0.1476,0.151,0.1747,0.1856,0.1189,0.1192,0.1195,0,-0.0276,-0.0314,-0.0365,-0.0407,-0.0415,-0.0428,-0.044,-0.0353,-0.0337,-0.0157,-0.0145,0.0081,0.0272,0.0613,0.0877,0.1124,0.1222,0.1324,0.1336,0.1554,0.1606,0.159,0.1661,0.1474,0.1478,0.1482,0.1485,0,-0.0341,-0.0362,-0.0406,-0.0509,-0.0551,-0.0594,-0.0601,-0.0604,-0.0489,-0.0392,-0.022,-0.0033,0.0391,0.0796,0.1149,0.1284,0.1511,0.1408,0.1633,0.1876,0.1881,0.1975,0.1339,0.1518,0.1515,0.1512,0.1511,0.1509,-0.0383,-0.0437,-0.0514,-0.0599,-0.0674,-0.0754,-0.0788,-0.0759,-0.0707,-0.0518,-0.0287,0.0119,0.0732,0.1304,0.1462,0.193,0.1787,0.206,0.2081,0.2046,0.2182,0.1618,0.1825,0.1823,0.1822,0.1821,0.182,0,-0.0431,-0.0501,-0.0602,-0.0718,-0.0832,-0.0842,-0.0894,-0.0904,-0.0848,-0.0508,-0.0244,0.0641,0.1237,0.1767,0.2391,0.261,0.2602,0.2704,0.2739,0.2777,0.2314,0.2367,0.2705,0.2704,0.2704,0.2704,0.2704,0.2703,-0.0461,-0.0563,-0.0621,-0.0826,-0.0922,-0.1047,-0.1083,-0.1052,-0.0838,-0.0308,0.0295,0.0767,0.1601,0.2625,0.3205,0.3224,0.3385,0.3335,0.3392,0.3125,0.3068,0.3012,0.3083,0.3565,0.3566,0.3881,0.3885,0.3888]}],[{"header":{"parameterUnit":"m.s-1","parameterCategory":2,"la1":30.2991,"la2":30.254,"lo1":-89.0895,"lo2":-89.0444,"dy":0.0017,"dx":0.0017,"nx":28,"ny":28,"refTime":"2025-03-15T21:00:00:Z","depth":"2","parameterNumber":2,"parameterNumberName":"U-component_of_CURRENTS"},"data":[0,0,0,0,0,0,0,0,0,0,0,0,0,0,0,0,0,0,0,0,0,0,0,0,0,0,0,0,0,0,0,0,0,0,0,0,0,0,0,0,0,0,0,0,0,0,0,0,0,0,0,0,0,0,0,0,0,0,-0.1551,-0.1551,0,-0.1573,-0.1573,-0.1573,-0.1569,-0.1569,-0.1569,-0.1568,-0.1501,-0.1499,-0.1497,0,0,0,0,0,0,0,0,0,0,0,0,0,-0.1457,-0.1459,-0.1551,-0.1551,-0.1552,-0.1573,-0.1573,-0.1573,-0.1569,-0.1569,-0.1568,-0.1568,-0.1501,-0.1499,-0.1497,0,0,0,0,0,0,0,0,0,0,0,0,0,-0.1487,-0.1459,-0.1551,-0.1555,-0.1556,-0.1573,-0.1573,-0.1573,-0.1569,-0.1569,-0.1568,-0.1568,-0.1502,-0.1499,-0.1497,-0.1481,0,0,-0.1488,-0.1487,0,0,0,0,0,0,0,0,-0.1485,-0.149,-0.1554,-0.1555,-0.1556,-0.1571,-0.1515,-0.1539,-0.1569,-0.156,-0.1568,-0.1568,-0.1518,-0.1514,-0.1514,-0.1478,-0.1475,-0.1488,-0.1487,-0.1485,-0.1485,0,0,0,0,0,0,0,-0.1483,-0.1488,-0.1555,-0.1555,-0.1556,-0.154,-0.1544,-0.1519,-0.1534,-0.1561,-0.1561,-0.157,-0.1518,-0.1517,-0.1513,-0.1474,-0.1488,-0.1486,-0.1484,-0.1483,-0.1422,-0.1422,0,0,0,0,0,0,-0.1491,-0.1487,-0.1555,-0.1556,-0.1524,-0.1542,-0.1547,-0.1563,-0.1537,-0.1534,-0.157,-0.157,-0.1522,-0.1516,-0.151,-0.1504,-0.1485,-0.1483,-0.1481,-0.1422,-0.1422,-0.1422,0,0,0,0,0,0,-0.1489,-0.1497,-0.1554,-0.1524,-0.1531,-0.1545,-0.1563,-0.1564,-0.1567,-0.1546,-0.1541,-0.1573,-0.1521,-0.1514,-0.1495,-0.1501,-0.1482,-0.1479,-0.1422,-0.1422,-0.1422,-0.1483,0,0,0,0,0,0,-0.1487,-0.1497,-0.1505,-0.1526,-0.1533,-0.1569,-0.1563,-0.1564,-0.1574,-0.1574,-0.1547,-0.154,-0.1521,-0.1499,-0.1492,-0.1497,-0.1477,-0.1422,-0.1422,-0.1422,-0.1481,-0.1485,-0.1488,0,0,0,0,0,-0.1483,-0.15,-0.1506,-0.1514,-0.1547,-0.157,-0.1572,-0.1578,-0.1575,-0.1579,-0.1561,-0.1541,-0.1493,-0.1497,-0.1489,-0.1493,-0.1422,-0.1422,-0.1422,-0.1479,-0.1484,-0.1488,0,0,0,0,0,0,-0.146,-0.1502,-0.1509,-0.1536,-0.1554,-0.1571,-0.1578,-0.1581,-0.1572,-0.1569,-0.1542,-0.1535,-0.1517,-0.1495,-0.15,-0.1473,-0.1453,-0.1452,-0.15,-0.1504,-0.1508,-0.1524,-0.1475,0,0,0,0,0,-0.1462,-0.1486,-0.1518,-0.1537,-0.155,-0.1563,-0.1571,-0.1579,-0.1578,-0.1575,-0.1557,-0.1532,-0.151,-0.15,-0.1474,-0.1463,-0.1466,-0.1458,-0.1462,-0.1466,-0.1472,-0.146,-0.1464,-0.1421,-0.1421,-0.1421,0,0,-0.1457,-0.1484,-0.1496,-0.1534,-0.1548,-0.1573,-0.1567,-0.1587,-0.1601,-0.1566,-0.1568,-0.1541,-0.1508,-0.1497,-0.1487,-0.1481,-0.149,-0.1465,-0.1469,-0.1474,-0.1461,-0.1465,-0.1469,-0.1421,-0.1421,-0.1421,0,0,-0.1467,-0.1487,-0.1514,-0.1534,-0.1566,-0.1577,-0.1586,-0.1605,-0.1606,-0.1605,-0.1583,-0.1564,-0.1532,-0.1517,-0.1503,-0.1509,-0.1506,-0.1497,-0.1535,-0.1524,-0.1528,-0.1531,-0.1593,-0.1602,-0.1504,-0.1505,-0.1505,0,-0.1459,-0.1503,-0.1521,-0.1554,-0.1577,-0.1583,-0.1615,-0.1617,-0.1623,-0.1626,-0.161,-0.1571,-0.1542,-0.1535,-0.154,-0.1518,-0.1536,-0.1525,-0.1531,-0.1534,-0.1536,-0.1598,-0.1607,-0.1508,-0.1507,-0.1507,-0.1507,0,-0.1493,-0.1527,-0.1544,-0.1592,-0.1613,-0.1641,-0.1659,-0.1668,-0.1665,-0.1663,-0.1651,-0.1614,-0.1596,-0.158,-0.1563,-0.1566,-0.1586,-0.1536,-0.1526,-0.1545,-0.1609,-0.1617,-0.1512,-0.1511,-0.151,-0.1509,0,0,-0.1485,-0.1556,-0.1563,-0.1598,-0.164,-0.1665,-0.1689,-0.1715,-0.174,-0.1712,-0.1733,-0.1684,-0.1665,-0.1647,-0.162,-0.1611,-0.1657,-0.159,-0.1588,-0.1666,-0.1694,-0.1769,-0.1785,-0.1607,-0.1607,-0.1607,-0.1753,0,-0.1509,-0.1575,-0.1607,-0.1667,-0.1705,-0.1727,-0.1757,-0.1775,-0.178,-0.1796,-0.1748,-0.1746,-0.169,-0.1692,-0.167,-0.1652,-0.1671,-0.1626,-0.1652,-0.1655,-0.1728,-0.1793,-0.1558,-0.1672,-0.1761,-0.1762,-0.1763,0,-0.1538,-0.1582,-0.1644,-0.1724,-0.1744,-0.1772,-0.1833,-0.1861,-0.1875,-0.1879,-0.186,-0.1834,-0.1822,-0.1762,-0.1753,-0.173,-0.1725,-0.171,-0.1714,-0.1763,-0.1742,-0.1654,-0.1682,-0.1775,-0.1774,-0.1773,-0.1772,0,-0.153,-0.1614,-0.1664,-0.1689,-0.1769,-0.1798,-0.1834,-0.1872,-0.1909,-0.1927,-0.1957,-0.1923,-0.193,-0.1882,-0.186,-0.181,-0.1871,-0.1791,-0.1866,-0.1874,-0.167,-0.1659,-0.1795,-0.1795,-0.1795,-0.1794,-0.1794,0,-0.1548,-0.1592,-0.1661,-0.1689,-0.1753,-0.1805,-0.1871,-0.1903,-0.1959,-0.2018,-0.1991,-0.2037,-0.1955,-0.1978,-0.1921,-0.1953,-0.1923,-0.1908,-0.1913,-0.1693,-0.1683,-0.1743,-0.1735,-0.18,-0.1799,-0.1798,-0.1797,0,-0.1531,-0.1579,-0.1639,-0.172,-0.1748,-0.1785,-0.1886,-0.1942,-0.1996,-0.2076,-0.2089,-0.2137,-0.2181,-0.2142,-0.2117,-0.2071,-0.2062,-0.208,-0.1881,-0.1861,-0.2064,-0.2057,-0.2178,-0.2182,-0.2185,-0.2188,-0.219,0,-0.153,-0.1556,-0.164,-0.1678,-0.1712,-0.1782,-0.1845,-0.193,-0.1995,-0.2144,-0.2185,-0.2278,-0.2325,-0.2361,-0.2253,-0.2221,-0.2214,-0.2052,-0.1898,-0.2109,-0.2101,-0.2089,-0.2078,-0.1665,-0.1663,-0.1661,-0.166,0,-0.1515,-0.1535,-0.1578,-0.1653,-0.1716,-0.1797,-0.1886,-0.1944,-0.2073,-0.2156,-0.23,-0.2358,-0.2405,-0.2268,-0.2253,-0.2178,-0.2029,-0.2024,-0.2256,-0.1629,-0.1643,-0.163,-0.1632,-0.1643,-0.1645,-0.1646,-0.1647,-0.1648,-0.1487,-0.1504,-0.1555,-0.1625,-0.17,-0.1782,-0.1797,-0.1885,-0.1977,-0.2015,-0.2237,-0.22,-0.2224,-0.2038,-0.1999,-0.1921,-0.2037,-0.1899,-0.1895,-0.1895,-0.1834,-0.1854,-0.1888,-0.1891,-0.1893,-0.1896,-0.1898,0,-0.1432,-0.1481,-0.1538,-0.1598,-0.1612,-0.1709,-0.1806,-0.1735,-0.1751,-0.1818,-0.1874,-0.173,-0.1705,-0.1717,-0.1564,-0.1616,-0.1483,-0.1571,-0.1346,-0.1366,-0.1382,-0.1284,-0.1198,-0.1196,-0.1194,-0.1193,0,0,-0.1409,-0.1419,-0.1449,-0.1462,-0.1522,-0.1466,-0.1482,-0.1401,-0.1352,-0.1262,-0.1228,-0.1397,-0.1558,-0.1294,-0.1322,-0.1221,-0.1245,-0.116,-0.1711,-0.1452,-0.1464,-0.1566,-0.1441,0,0,0,0,0]},{"header":{"parameterUnit":"m.s-1","parameterCategory":2,"la1":30.2991,"la2":30.254,"lo1":-89.0895,"lo2":-89.0444,"dy":0.0017,"dx":0.0017,"nx":28,"ny":28,"refTime":"2025-03-15T21:00:00:Z","depth":"2","parameterNumber":3,"parameterNumberName":"V-component_of_CURRENTS"},"data":[0,0,0,0,0,0,0,0,0,0,0,0,0,0,0,0,0,0,0,0,0,0,0,0,0,0,0,0,0,0,0,0,0,0,0,0,0,0,0,0,0,0,0,0,0,0,0,0,0,0,0,0,0,0,0,0,0,0,0.0136,0.0137,0,0.0187,0.0187,0.0188,0.0217,0.0217,0.0217,0.0217,0.0288,0.029,0.0292,0,0,0,0,0,0,0,0,0,0,0,0,0,0.0109,0.0109,0.0136,0.0137,0.0137,0.0187,0.0187,0.0188,0.0217,0.0217,0.0217,0.0218,0.0287,0.029,0.0292,0,0,0,0,0,0,0,0,0,0,0,0,0,0.0137,0.0109,0.0136,0.0157,0.016,0.0186,0.0187,0.0188,0.0217,0.0217,0.0217,0.0218,0.0287,0.0289,0.0292,0.0307,0,0,0.03,0.0302,0,0,0,0,0,0,0,0,0.0135,0.0138,0.0154,0.0156,0.0159,0.0195,0.0204,0.0229,0.0217,0.0196,0.0217,0.0218,0.0258,0.0263,0.0273,0.0311,0.0314,0.0301,0.0302,0.0303,0.0304,0,0,0,0,0,0,0,0.0133,0.0136,0.0157,0.0154,0.0157,0.0179,0.0183,0.0209,0.0227,0.0198,0.02,0.0205,0.026,0.0271,0.0275,0.0315,0.0301,0.0303,0.0305,0.0306,0.04,0.04,0,0,0,0,0,0,0.0123,0.0134,0.0155,0.0158,0.0146,0.0179,0.0184,0.0184,0.0226,0.0233,0.0204,0.0206,0.0266,0.0272,0.0278,0.0316,0.0303,0.0306,0.0308,0.0399,0.04,0.0401,0,0,0,0,0,0,0.0122,0.0124,0.0153,0.0147,0.0152,0.0179,0.018,0.0185,0.0196,0.0231,0.0238,0.021,0.0266,0.0274,0.0308,0.0318,0.0307,0.031,0.0398,0.0399,0.04,0.038,0,0,0,0,0,0,0.0121,0.0123,0.012,0.0146,0.0152,0.0165,0.018,0.0186,0.0198,0.02,0.0238,0.0244,0.0267,0.0303,0.031,0.0321,0.0312,0.0397,0.0398,0.04,0.038,0.0381,0.0381,0,0,0,0,0,0.012,0.011,0.0119,0.0122,0.0146,0.0164,0.017,0.019,0.0198,0.0201,0.0233,0.0243,0.0319,0.0306,0.0314,0.0326,0.0396,0.0398,0.04,0.0379,0.038,0.0381,0,0,0,0,0,0,0.0095,0.0113,0.0123,0.012,0.014,0.0169,0.0171,0.0188,0.0215,0.0218,0.0252,0.0262,0.0295,0.0315,0.0301,0.036,0.036,0.0363,0.0342,0.0343,0.0344,0.0346,0.0314,0,0,0,0,0,0.0088,0.0085,0.0111,0.0108,0.0116,0.0144,0.0154,0.0169,0.0197,0.0208,0.0237,0.0273,0.031,0.0328,0.0359,0.0389,0.0415,0.0404,0.0405,0.0405,0.0414,0.0465,0.0471,0.0407,0.0407,0.0407,0,0,0.0076,0.0086,0.0085,0.0103,0.0119,0.0127,0.015,0.0162,0.0176,0.0212,0.0238,0.0273,0.0318,0.0354,0.0371,0.0372,0.0435,0.0408,0.0407,0.0416,0.0468,0.0474,0.0479,0.0408,0.0408,0.0408,0,0,0.0048,0.0062,0.005,0.0066,0.0087,0.011,0.0112,0.0143,0.0165,0.0195,0.0231,0.0278,0.0318,0.0365,0.0392,0.0417,0.0435,0.042,0.0428,0.0477,0.0482,0.0488,0.0515,0.0523,0.0422,0.0422,0.0422,0,0.0034,0.0022,0.0051,0.0047,0.0055,0.01,0.0094,0.0128,0.0168,0.0198,0.0198,0.0296,0.0329,0.0399,0.0408,0.042,0.0439,0.0416,0.0477,0.0483,0.0489,0.0516,0.0525,0.0421,0.0421,0.0422,0.0422,0,-0.0,-0.0007,-0.0012,-0.0,0.0018,0.0019,0.0067,0.0099,0.0131,0.0171,0.024,0.0297,0.0358,0.0378,0.0399,0.0464,0.046,0.0468,0.047,0.0494,0.0521,0.053,0.042,0.0421,0.0421,0.0421,0,0,-0.0035,-0.0039,-0.004,-0.0048,-0.001,-0.0003,0.004,0.0093,0.0129,0.0186,0.0235,0.0318,0.0359,0.0393,0.0437,0.0485,0.0537,0.0489,0.0492,0.0508,0.0628,0.0713,0.0732,0.0548,0.055,0.0552,0.0625,0,-0.0072,-0.0111,-0.0085,-0.0101,-0.0117,-0.005,-0.0015,0.0048,0.0111,0.0174,0.0268,0.0323,0.0362,0.0389,0.045,0.0516,0.0563,0.0515,0.061,0.0613,0.0681,0.0747,0.0573,0.0633,0.0635,0.0636,0.0637,0,-0.0111,-0.0136,-0.0174,-0.0163,-0.0158,-0.0147,-0.0074,-0.0036,0.0084,0.0135,0.023,0.0301,0.0403,0.0415,0.0558,0.0521,0.0574,0.0622,0.0626,0.0724,0.0719,0.0614,0.065,0.0654,0.0652,0.0651,0.065,0,-0.0171,-0.0189,-0.0229,-0.0228,-0.0203,-0.0186,-0.0156,-0.005,-0.0016,0.011,0.0149,0.0291,0.0344,0.0453,0.0575,0.0559,0.0718,0.0706,0.0836,0.084,0.0725,0.0718,0.0802,0.0801,0.0801,0.0801,0.0801,0,-0.0224,-0.025,-0.0265,-0.0288,-0.0309,-0.0257,-0.0238,-0.017,-0.0081,-0.004,0.0113,0.018,0.0354,0.0474,0.0576,0.0755,0.0724,0.0863,0.0884,0.0714,0.0706,0.0749,0.0742,0.0804,0.0803,0.0803,0.0802,0,-0.0281,-0.0292,-0.0342,-0.0346,-0.0346,-0.0361,-0.0328,-0.0313,-0.0203,-0.0146,-0.0113,0.0088,0.0279,0.0461,0.0644,0.0756,0.091,0.0968,0.0761,0.0761,0.099,0.098,0.1129,0.1133,0.1136,0.1139,0.1142,0,-0.0315,-0.0353,-0.0404,-0.0446,-0.0453,-0.0466,-0.0479,-0.0393,-0.0377,-0.0198,-0.0187,0.0038,0.0216,0.0555,0.0741,0.0965,0.1,0.0978,0.0952,0.1028,0.1032,0.1017,0.1004,0.076,0.0759,0.0758,0.0757,0,-0.038,-0.04,-0.0445,-0.0546,-0.0589,-0.0633,-0.0639,-0.0643,-0.0528,-0.044,-0.027,-0.0096,0.0253,0.0478,0.0799,0.0905,0.0943,0.0979,0.1098,0.0739,0.0696,0.0696,0.0691,0.0751,0.0751,0.0752,0.0752,0.0753,-0.0421,-0.0475,-0.0551,-0.0636,-0.0711,-0.0791,-0.0826,-0.0823,-0.0784,-0.0679,-0.0439,-0.0222,0.0106,0.0488,0.0735,0.0932,0.0973,0.099,0.0983,0.098,0.096,0.093,0.1021,0.1023,0.1025,0.1027,0.1028,0,-0.0485,-0.0539,-0.0638,-0.0754,-0.0886,-0.0879,-0.0931,-0.0972,-0.096,-0.084,-0.0673,-0.0367,-0.0047,0.0309,0.0585,0.0853,0.0768,0.0909,0.0719,0.0723,0.0727,0.0689,0.0681,0.0682,0.0682,0.0683,0,0,-0.0519,-0.0628,-0.0686,-0.0899,-0.098,-0.1136,-0.1174,-0.1191,-0.115,-0.1058,-0.0917,-0.0661,-0.0143,0.0001,0.0322,0.0492,0.053,0.0494,0.0728,0.0461,0.0462,0.0719,0.0661,0,0,0,0,0]}],[{"header":{"parameterUnit":"m.s-1","parameterCategory":2,"la1":30.2991,"la2":30.254,"lo1":-89.0895,"lo2":-89.0444,"dy":0.0017,"dx":0.0017,"nx":28,"ny":28,"refTime":"2025-03-15T21:00:00:Z","depth":"4","parameterNumber":2,"parameterNumberName":"U-component_of_CURRENTS"},"data":[0,0,0,0,0,0,0,0,0,0,0,0,0,0,0,0,0,0,0,0,0,0,0,0,0,0,0,0,0,0,0,0,0,0,0,0,0,0,0,0,0,0,0,0,0,0,0,0,0,0,0,0,0,0,0,0,0,0,-0.087,-0.0871,0,-0.091,-0.091,-0.0911,-0.0934,-0.0934,-0.0934,-0.0934,-0.0932,-0.0932,-0.0932,0,0,0,0,0,0,0,0,0,0,0,0,0,-0.0809,-0.081,-0.087,-0.0871,-0.0871,-0.091,-0.091,-0.0911,-0.0934,-0.0934,-0.0934,-0.0934,-0.0932,-0.0932,-0.0932,0,0,0,0,0,0,0,0,0,0,0,0,0,-0.0839,-0.081,-0.087,-0.0888,-0.089,-0.091,-0.091,-0.0911,-0.0934,-0.0934,-0.0934,-0.0935,-0.0932,-0.0932,-0.0932,-0.0924,0,0,-0.0931,-0.0931,0,0,0,0,0,0,0,0,-0.0838,-0.0842,-0.0885,-0.0887,-0.089,-0.0918,-0.0888,-0.0914,-0.0934,-0.0916,-0.0934,-0.0935,-0.0924,-0.0925,-0.093,-0.0924,-0.0924,-0.0931,-0.093,-0.093,-0.093,0,0,0,0,0,0,0,-0.0836,-0.084,-0.0885,-0.0886,-0.0888,-0.0893,-0.0897,-0.0893,-0.0916,-0.0918,-0.092,-0.0926,-0.0925,-0.0931,-0.093,-0.0924,-0.0931,-0.093,-0.093,-0.093,-0.0939,-0.0939,0,0,0,0,0,0,-0.0833,-0.0838,-0.0884,-0.0886,-0.0865,-0.0894,-0.0899,-0.0908,-0.0917,-0.092,-0.0926,-0.0927,-0.0931,-0.0931,-0.093,-0.0964,-0.093,-0.093,-0.093,-0.0939,-0.0939,-0.094,0,0,0,0,0,0,-0.0832,-0.0837,-0.0882,-0.0864,-0.087,-0.0895,-0.0904,-0.0908,-0.0931,-0.0924,-0.0926,-0.0946,-0.0931,-0.0931,-0.0947,-0.0962,-0.093,-0.093,-0.0938,-0.0939,-0.0939,-0.1004,0,0,0,0,0,0,-0.083,-0.0836,-0.0848,-0.0864,-0.0871,-0.0907,-0.0904,-0.0909,-0.0934,-0.0936,-0.0941,-0.0941,-0.0932,-0.0948,-0.0947,-0.0961,-0.0929,-0.0938,-0.0938,-0.0939,-0.1001,-0.1007,-0.1011,0,0,0,0,0,-0.0827,-0.0842,-0.0848,-0.0854,-0.0884,-0.0908,-0.0913,-0.093,-0.0934,-0.095,-0.0956,-0.0941,-0.0952,-0.0948,-0.0947,-0.0962,-0.0937,-0.0938,-0.0939,-0.0999,-0.1006,-0.1011,0,0,0,0,0,0,-0.0821,-0.0846,-0.0854,-0.0875,-0.0896,-0.0913,-0.093,-0.094,-0.0957,-0.0962,-0.0953,-0.0954,-0.097,-0.0956,-0.0952,-0.0965,-0.0939,-0.094,-0.0985,-0.0991,-0.0996,-0.0999,-0.0929,0,0,0,0,0,-0.0825,-0.0843,-0.0866,-0.0884,-0.0897,-0.0916,-0.093,-0.0943,-0.0958,-0.0967,-0.0973,-0.0972,-0.097,-0.0974,-0.097,-0.0982,-0.0981,-0.0987,-0.0992,-0.0997,-0.0997,-0.0998,-0.1004,-0.0943,-0.0943,-0.0943,0,0,-0.0826,-0.0843,-0.0854,-0.0884,-0.0901,-0.0931,-0.0925,-0.0954,-0.0981,-0.0962,-0.1001,-0.0992,-0.0976,-0.0992,-0.0997,-0.0985,-0.1022,-0.0998,-0.1002,-0.1,-0.1,-0.1006,-0.1012,-0.0944,-0.0944,-0.0943,0,0,-0.0838,-0.0856,-0.0877,-0.0901,-0.0934,-0.0949,-0.0962,-0.0991,-0.1007,-0.1038,-0.1027,-0.1031,-0.1039,-0.103,-0.1025,-0.1052,-0.1047,-0.1051,-0.1083,-0.1085,-0.1091,-0.1095,-0.1141,-0.1149,-0.1055,-0.1055,-0.1055,0,-0.084,-0.0873,-0.0887,-0.0918,-0.0945,-0.0961,-0.0997,-0.1015,-0.1047,-0.1059,-0.1059,-0.1066,-0.1054,-0.1062,-0.1073,-0.1065,-0.1081,-0.1065,-0.1093,-0.1097,-0.1101,-0.1146,-0.1154,-0.1058,-0.1058,-0.1058,-0.1057,0,-0.0866,-0.0904,-0.092,-0.0967,-0.0995,-0.1029,-0.1058,-0.1086,-0.1105,-0.1118,-0.1138,-0.1125,-0.1127,-0.1122,-0.1109,-0.1125,-0.1136,-0.1101,-0.1082,-0.1111,-0.1157,-0.1164,-0.1063,-0.1062,-0.1061,-0.106,0,0,-0.0844,-0.0923,-0.0933,-0.097,-0.1028,-0.1053,-0.1099,-0.1139,-0.1172,-0.1184,-0.122,-0.1205,-0.1196,-0.1188,-0.1169,-0.1168,-0.1217,-0.1152,-0.1151,-0.1206,-0.1263,-0.1231,-0.1236,-0.119,-0.1191,-0.1191,-0.1301,0,-0.0865,-0.0933,-0.097,-0.1041,-0.1081,-0.1119,-0.1164,-0.1199,-0.1227,-0.1265,-0.1243,-0.1266,-0.1222,-0.1234,-0.1223,-0.1216,-0.1232,-0.1193,-0.1218,-0.122,-0.1193,-0.124,-0.1193,-0.1306,-0.1307,-0.1308,-0.1309,0,-0.0878,-0.0928,-0.1,-0.109,-0.1111,-0.1154,-0.1227,-0.1268,-0.1312,-0.1335,-0.1343,-0.134,-0.1347,-0.1302,-0.1308,-0.129,-0.1285,-0.1274,-0.1277,-0.1223,-0.1199,-0.1258,-0.1322,-0.1321,-0.132,-0.1319,-0.1318,0,-0.0853,-0.095,-0.101,-0.1042,-0.1139,-0.1176,-0.1223,-0.1282,-0.1329,-0.1379,-0.1425,-0.1418,-0.1445,-0.1412,-0.1399,-0.1362,-0.1416,-0.1359,-0.1332,-0.1332,-0.13,-0.1293,-0.1366,-0.1366,-0.1365,-0.1365,-0.1365,0,-0.0855,-0.0907,-0.1005,-0.1039,-0.1106,-0.1176,-0.1247,-0.1292,-0.1375,-0.1439,-0.1455,-0.1503,-0.1473,-0.1499,-0.145,-0.1432,-0.1461,-0.1354,-0.1351,-0.133,-0.1326,-0.1308,-0.13,-0.1369,-0.1368,-0.1368,-0.1367,0,-0.0815,-0.0884,-0.0955,-0.1063,-0.1095,-0.1138,-0.1257,-0.1308,-0.14,-0.149,-0.1517,-0.1593,-0.1624,-0.1608,-0.1592,-0.152,-0.1488,-0.1475,-0.1514,-0.1509,-0.1395,-0.1389,-0.1449,-0.1449,-0.1448,-0.1448,-0.1448,0,-0.0801,-0.0836,-0.0949,-0.0982,-0.1031,-0.1112,-0.1168,-0.1288,-0.1356,-0.1534,-0.1574,-0.1668,-0.1696,-0.1659,-0.1634,-0.1581,-0.1537,-0.1536,-0.1398,-0.1409,-0.1401,-0.1395,-0.139,-0.1447,-0.1447,-0.1447,-0.1447,0,-0.0768,-0.0812,-0.0863,-0.0922,-0.0985,-0.1066,-0.1165,-0.1223,-0.1382,-0.1493,-0.1592,-0.1614,-0.1672,-0.1633,-0.1629,-0.1567,-0.1532,-0.1531,-0.1529,-0.1399,-0.1408,-0.1398,-0.1393,-0.1446,-0.1446,-0.1446,-0.1446,0,-0.0731,-0.0748,-0.0804,-0.0844,-0.0919,-0.0989,-0.1065,-0.1172,-0.1264,-0.148,-0.1514,-0.1599,-0.1682,-0.1633,-0.1615,-0.1573,-0.1512,-0.1428,-0.143,-0.1431,-0.1365,-0.137,-0.1408,0,0,0,0,0,-0.0693,-0.0692,-0.0721,-0.0762,-0.0832,-0.0873,-0.1045,-0.1138,-0.132,-0.1362,-0.144,-0.1484,-0.15,-0.1532,-0.1472,-0.1573,-0.1496,-0.1497,-0.1396,-0.144,-0.1441,-0.1358,0,0,0,0,0,0,-0.0664,-0.0686,-0.0686,-0.0674,-0.068,-0.0759,-0.0868,-0.1005,-0.1049,-0.1231,-0.1235,-0.1369,-0.1378,-0.1475,-0.1417,-0.1429,-0.1337,-0.1553,-0.155,-0.1439,-0.144,-0.1441,-0.1357,0,0,0,0,0]},{"header":{"parameterUnit":"m.s-1","parameterCategory":2,"la1":30.2991,"la2":30.254,"lo1":-89.0895,"lo2":-89.0444,"dy":0.0017,"dx":0.0017,"nx":28,"ny":28,"refTime":"2025-03-15T21:00:00:Z","depth":"4","parameterNumber":3,"parameterNumberName":"V-component_of_CURRENTS"},"data":[0,0,0,0,0,0,0,0,0,0,0,0,0,0,0,0,0,0,0,0,0,0,0,0,0,0,0,0,0,0,0,0,0,0,0,0,0,0,0,0,0,0,0,0,0,0,0,0,0,0,0,0,0,0,0,0,0,0,-0.0258,-0.0257,0,-0.0191,-0.019,-0.0189,-0.0146,-0.0146,-0.0146,-0.0146,-0.0058,-0.0056,-0.0054,0,0,0,0,0,0,0,0,0,0,0,0,0,-0.0298,-0.0298,-0.0258,-0.0257,-0.0256,-0.0191,-0.019,-0.0189,-0.0146,-0.0146,-0.0146,-0.0146,-0.0059,-0.0056,-0.0053,0,0,0,0,0,0,0,0,0,0,0,0,0,-0.026,-0.0298,-0.0258,-0.0228,-0.0225,-0.0192,-0.019,-0.0189,-0.0146,-0.0146,-0.0146,-0.0146,-0.006,-0.0056,-0.0053,-0.0036,0,0,-0.0043,-0.0041,0,0,0,0,0,0,0,0,-0.0262,-0.0258,-0.0233,-0.023,-0.0227,-0.0178,-0.0172,-0.0137,-0.0146,-0.0174,-0.0146,-0.0146,-0.0097,-0.0091,-0.0077,-0.0032,-0.0028,-0.0043,-0.0041,-0.0039,-0.0038,0,0,0,0,0,0,0,-0.0265,-0.026,-0.023,-0.0233,-0.0229,-0.0202,-0.0196,-0.0165,-0.0136,-0.0172,-0.0169,-0.0164,-0.0095,-0.008,-0.0074,-0.0027,-0.0043,-0.004,-0.0038,-0.0036,0.0072,0.0073,0,0,0,0,0,0,-0.0279,-0.0263,-0.0232,-0.0228,-0.0246,-0.0201,-0.0195,-0.0193,-0.0137,-0.0129,-0.0165,-0.0163,-0.0086,-0.0078,-0.0071,-0.0028,-0.0039,-0.0036,-0.0034,0.0071,0.0072,0.0073,0,0,0,0,0,0,-0.028,-0.0277,-0.0235,-0.0245,-0.0238,-0.0201,-0.0199,-0.0192,-0.0176,-0.0132,-0.0123,-0.0156,-0.0086,-0.0076,-0.0032,-0.0025,-0.0035,-0.0032,0.007,0.0071,0.0072,0.0045,0,0,0,0,0,0,-0.0282,-0.0278,-0.0282,-0.0246,-0.0238,-0.022,-0.0199,-0.019,-0.0174,-0.0171,-0.0122,-0.0113,-0.0085,-0.0037,-0.0029,-0.0021,-0.0029,0.0069,0.007,0.0072,0.0045,0.0045,0.0046,0,0,0,0,0,-0.0283,-0.0293,-0.0282,-0.0279,-0.0245,-0.022,-0.0214,-0.0185,-0.0174,-0.017,-0.0126,-0.0115,-0.0021,-0.0034,-0.0024,-0.0015,0.0068,0.007,0.0072,0.0045,0.0045,0.0046,0,0,0,0,0,0,-0.0313,-0.0289,-0.0276,-0.0278,-0.0253,-0.0214,-0.0211,-0.0188,-0.0151,-0.0146,-0.0103,-0.0091,-0.005,-0.0026,-0.0042,0.0023,0.0025,0.0029,0.0001,0.0002,0.0002,-0.0012,-0.0026,0,0,0,0,0,-0.0322,-0.0324,-0.0291,-0.0293,-0.0284,-0.0247,-0.0234,-0.0213,-0.0176,-0.016,-0.0122,-0.0078,-0.0034,-0.0013,0.0025,0.0059,0.0084,0.0072,0.0072,0.0072,0.0069,0.012,0.0124,0.0079,0.0079,0.0079,0,0,-0.0335,-0.0322,-0.0323,-0.03,-0.0279,-0.0262,-0.0238,-0.0222,-0.0201,-0.0156,-0.0116,-0.0077,-0.0024,0.0017,0.0037,0.0037,0.0099,0.0075,0.0074,0.0071,0.0122,0.0126,0.013,0.0081,0.008,0.008,0,0,-0.036,-0.0349,-0.0357,-0.0336,-0.0309,-0.0281,-0.0278,-0.0237,-0.0212,-0.0169,-0.0128,-0.0083,-0.0022,0.002,0.0049,0.0074,0.0099,0.0085,0.0076,0.0125,0.0129,0.0132,0.0167,0.0174,0.0086,0.0085,0.0085,0,-0.0376,-0.0377,-0.0354,-0.035,-0.0335,-0.0291,-0.0286,-0.0251,-0.0197,-0.0174,-0.0162,-0.0058,-0.002,0.0041,0.0052,0.0073,0.0101,0.0066,0.0124,0.0128,0.0132,0.0167,0.0175,0.0084,0.0085,0.0085,0.0085,0,-0.04,-0.0397,-0.04,-0.0377,-0.0357,-0.0347,-0.0298,-0.027,-0.0233,-0.0194,-0.0132,-0.0069,-0.0009,0.0012,0.0041,0.0093,0.0103,0.0116,0.0117,0.0135,0.0171,0.0179,0.0083,0.0083,0.0084,0.0084,0,0,-0.0441,-0.0422,-0.0422,-0.0418,-0.0371,-0.0361,-0.032,-0.0273,-0.0245,-0.0186,-0.0141,-0.0066,-0.0033,0.0003,0.0048,0.009,0.0143,0.0112,0.0115,0.0135,0.0245,0.022,0.0228,0.0167,0.0168,0.0169,0.0257,0,-0.0464,-0.0474,-0.0448,-0.0444,-0.0442,-0.0387,-0.0357,-0.0307,-0.0248,-0.0191,-0.0119,-0.0061,-0.0034,-0.0001,0.0047,0.0129,0.0165,0.0117,0.0234,0.0237,0.0205,0.0237,0.0174,0.0263,0.0265,0.0267,0.0268,0,-0.0491,-0.0495,-0.0505,-0.0483,-0.0477,-0.0463,-0.0406,-0.0371,-0.0277,-0.0232,-0.0156,-0.0088,-0.0001,0.0012,0.0146,0.0116,0.0171,0.0224,0.0229,0.022,0.0229,0.0246,0.0284,0.0283,0.0282,0.0281,0.028,0,-0.0538,-0.0531,-0.0545,-0.0536,-0.0502,-0.0494,-0.0468,-0.039,-0.0361,-0.0251,-0.0208,-0.0095,-0.0029,0.0062,0.0176,0.0169,0.0314,0.032,0.0345,0.0344,0.0349,0.0345,0.0395,0.0394,0.0394,0.0394,0.0394,0,-0.0565,-0.0577,-0.0574,-0.058,-0.0597,-0.0549,-0.0539,-0.0487,-0.041,-0.0373,-0.0239,-0.0177,-0.0013,0.0097,0.0182,0.0294,0.0322,0.0347,0.0369,0.0336,0.0329,0.0355,0.0349,0.0397,0.0397,0.0396,0.0395,0,-0.0604,-0.0602,-0.0625,-0.0618,-0.0622,-0.0633,-0.0609,-0.0598,-0.0504,-0.0442,-0.0407,-0.0227,-0.0076,0.0075,0.0241,0.0299,0.0407,0.043,0.0381,0.0398,0.0401,0.0393,0.0477,0.0477,0.0477,0.0477,0.0477,0,-0.062,-0.0639,-0.0671,-0.0703,-0.0704,-0.0716,-0.0731,-0.0662,-0.0639,-0.0479,-0.0455,-0.0273,-0.0151,0.0068,0.0226,0.0401,0.0408,0.0465,0.0434,0.0399,0.0412,0.0404,0.0396,0.0477,0.0477,0.0477,0.0477,0,-0.0652,-0.0672,-0.0694,-0.0767,-0.0804,-0.084,-0.0842,-0.0828,-0.073,-0.0645,-0.0495,-0.0327,-0.015,0.0045,0.0191,0.0308,0.0437,0.0465,0.0465,0.0436,0.04,0.0411,0.0403,0.0476,0.0476,0.0476,0.0476,0,-0.068,-0.0714,-0.0762,-0.0819,-0.089,-0.0941,-0.0928,-0.0886,-0.0845,-0.0654,-0.0612,-0.0374,-0.0221,-0.0004,0.0125,0.0254,0.0276,0.0297,0.0306,0.0308,0.0233,0.016,0.0185,0,0,0,0,0,-0.0701,-0.0747,-0.0811,-0.0881,-0.0959,-0.0998,-0.0997,-0.0965,-0.0861,-0.0783,-0.0691,-0.0525,-0.0256,-0.0118,-0.0001,0.0103,0.0282,0.0244,0.0305,0.0476,0.0476,0.0413,0,0,0,0,0,0,-0.072,-0.0782,-0.0814,-0.0929,-0.0993,-0.1072,-0.108,-0.1009,-0.0947,-0.0814,-0.0679,-0.0531,-0.0284,-0.0345,-0.0014,0.0038,0.0086,0.0392,0.0394,0.0476,0.0476,0.0476,0.0412,0,0,0,0,0]}]]